Torna al catalogo

STARLINK-3714

AttivoComunicazioniVLEO
NORAD 52094·PAYLOAD·🇺🇸 United States

Lanciato Mar 19, 2022 da Cape Canaveral Space Force Station

Loading…

Prossimi Passaggi (prossime 24 ore)

TLE

AggiornatoSource: CelesTrak SupGP

Epoca: Sep 14, 2026, 14:01 UTC

1 52094C 22029G   26257.58451389  .00046375  00000+0  13705-2 0  2579
2 52094  53.1568 309.0280 0001212  81.3920   6.2135 15.34359461    10

Traccia STARLINK-3714 in tempo reale con AllMySat

Download on the App Store